Preview of NWS' New Version of Forecast
This preview is not operational and should not be used for support decisions.

Regional Weather Roundup (RWR)

Issued by National Weather Service (NWS)

                            
000
ASUS43 KTOP 201059
RWRKS 

WEATHER ROUNDUP FOR KANSAS
NATIONAL WEATHER SERVICE GOODLAND KS
500 AM CST WED FEB 20 2019

NOTE:  "FAIR" INDICATES FEW OR NO CLOUDS BELOW 12,000 FEET WITH NO
SIGNIFICANT WEATHER AND/OR OBSTRUCTIONS TO VISIBILITY.

KSZ001>006-013>018-027>032-041>047-201200-
NORTHWEST KANSAS
  
CITY           SKY/WX    TMP DP  RH WIND       PRES   REMARKS
GOODLAND       PTCLDY   N/A N/A N/A W9        29.63F                  
HAYS           LGT SNOW  21  19  92 W5        29.74F FOG              
HILL CITY      CLOUDY    17  15  92 CALM      29.72F FOG              
RUSSELL        LGT SNOW  23  23 100 SW3       29.72F FOG              
$$

KSZ061>065-074>080-084>089-201200-
SOUTHWEST KANSAS
  
CITY           SKY/WX    TMP DP  RH WIND       PRES   REMARKS
DODGE CITY     CLOUDY    24  21  88 SW6       29.70F FOG              
GARDEN CITY    CLOUDY    22  21  96 CALM      29.67F FOG              
GREAT BEND     FLURRIES  25  23  92 SW5       29.74F                  
LIBERAL        PTCLDY    20  18  92 W9        29.70F                  
$$

KSZ066>073-081>083-090>101-201200-
SOUTHEAST KANSAS
  
CITY           SKY/WX    TMP DP  RH WIND       PRES   REMARKS
CHANUTE        FOG       33  31  92 S8        29.81F VSB 1            
COFFEYVILLE    CLOUDY    33  32  96 SW9       29.83F FOG              
HUTCHINSON     CLOUDY    27  26  96 W8        29.76F                  
MEDICINE LODGE   N/A     24  23  96 S5        29.76F                  
NEWTON         LGT SNOW  26  24  92 SW6       29.76F VSB 1            
PARSONS        FOG       32  32 100 SW6       29.82F VSB 3/4          
WICHITA INTL   CLOUDY    28  27  96 W7        29.78F FOG              
WICHITA JABRA  CLOUDY    28  26  92 SW12      29.78S FOG     WCI  18  
WICHITA MCCONL CLOUDY    28  28  99 W9        29.78                   
WINFIELD       CLOUDY    29  27  92 SW10      29.82S FOG     WCI  20  
$$

KSZ007>012-019>026-033>040-048>060-102>105-201200-
NORTHEAST KANSAS
  
CITY           SKY/WX    TMP DP  RH WIND       PRES   REMARKS
CONCORDIA      LGT SNOW  24  23  96 S3        29.73F FOG              
EMPORIA        CLOUDY    27  27 100 S6        29.76F                  
LAWRENCE       CLOUDY    29  28  96 CALM      29.79F FOG              
MANHATTAN      CLOUDY    28  26  92 CALM      29.78F FOG              
OLATHE IND     LGT SNOW  29  29 100 SE7       29.78F FOG              
OLATHE EXE     LGT SNOW  29  29 100 S8        29.77F FOG              
SALINA         CLOUDY    26  26 100 S3        29.77S FOG              
TOPEKA BILLARD CLOUDY    29  26  89 CALM      29.79F FOG              
TOPEKA FORBES  CLOUDY    28  26  92 S3        29.78S FOG              
$$